| time (UTC) | temp F | wind direction | speed MPH | gust MPH | rain 1hr in | rain 24hr in | rain mn in | humidity % | barometer mb |
| 20260506083054 | 51 | 317 | 4.0 | 12.0 | 0.00 | 0.27 | 0.02 | 99 | 1010.2 |
| 20260506081551 | 51 | 329 | 5.0 | 11.0 | 0.00 | 0.27 | 0.02 | 100 | 1010.0 |
| 20260506073043 | 50 | 335 | 5.0 | 12.0 | 0.01 | 0.48 | 0.02 | 100 | 1009.8 |
| 20260506071539 | 51 | 9 | 6.0 | 14.0 | 0.01 | 0.48 | 0.02 | 100 | 1009.6 |
| 20260506061532 | 51 | 323 | 6.0 | 11.0 | 0.01 | 0.80 | 0.01 | 100 | 1009.0 |
| 20260506044536 | 51 | 314 | 2.0 | 7.0 | 0.00 | 1.61 | 0.00 | 100 | 1008.2 |
| 20260506043026 | 51 | 315 | 5.0 | 8.0 | 0.00 | 1.61 | 0.00 | 100 | 1008.2 |
| 20260506041523 | 51 | 317 | 6.0 | 9.0 | 0.00 | 1.61 | 0.00 | 100 | 1008.2 |
| 20260506040022 | 51 | 280 | 4.0 | 9.0 | 0.00 | 1.61 | 0.00 | 100 | 1008.1 |
| 20260506034522 | 51 | 309 | 2.0 | 6.0 | 0.00 | 1.63 | 0.00 | 100 | 1008.1 |
| 20260506033032 | 51 | 309 | 3.0 | 7.0 | 0.00 | 1.63 | 0.00 | 100 | 1008.2 |
| 20260506031529 | 51 | 321 | 3.0 | 9.0 | 0.00 | 1.63 | 0.00 | 100 | 1008.1 |
| 20260506030040 | 51 | 259 | 1.0 | 6.0 | 0.00 | 1.63 | 0.00 | 100 | 1008.3 |
| 20260506024524 | 52 | 275 | 2.0 | 5.0 | 0.00 | 1.63 | 0.00 | 100 | 1008.4 |
| 20260506023014 | 52 | 309 | 2.0 | 6.0 | 0.00 | 1.63 | 0.00 | 100 | 1008.4 |
| 20260506021512 | 52 | 232 | 2.0 | 6.0 | 0.00 | 1.63 | 0.00 | 100 | 1008.5 |
| 20260506020011 | 52 | 227 | 2.0 | 5.0 | 0.00 | 1.63 | 0.00 | 100 | 1008.6 |
| 20260506014511 | 52 | 265 | 2.0 | 4.0 | 0.00 | 1.63 | 0.00 | 100 | 1008.6 |
| 20260506013010 | 52 | 249 | 1.0 | 4.0 | 0.00 | 1.63 | 0.00 | 100 | 1008.7 |
| 20260506011507 | 52 | 334 | 1.0 | 3.0 | 0.00 | 1.63 | 0.00 | 100 | 1008.6 |
| 20260506010007 | 52 | 302 | 2.0 | 6.0 | 0.00 | 1.63 | 0.00 | 100 | 1008.7 |
| 20260506004514 | 52 | 265 | 1.0 | 5.0 | 0.00 | 1.63 | 0.00 | 100 | 1008.8 |
| 20260506003007 | 52 | 153 | 0.0 | 4.0 | 0.00 | 1.63 | 0.00 | 100 | 1009.0 |
| 20260506001503 | 52 | 265 | 2.0 | 6.0 | 0.00 | 1.63 | 0.00 | 100 | 1009.1 |
| 20260506000006 | 52 | 193 | 2.0 | 6.0 | 0.00 | 1.63 | 0.00 | 100 | 1009.1 |
| 20260505234502 | 52 | 178 | 2.0 | 5.0 | 0.00 | 1.63 | 0.00 | 100 | 1009.2 |
| 20260505233129 | 52 | 185 | 2.0 | 5.0 | 0.00 | 1.63 | 0.00 | 100 | 1009.2 |
| 20260505231559 | 52 | 252 | 1.0 | 5.0 | 0.00 | 1.63 | 0.00 | 100 | 1009.0 |
| 20260505230057 | 52 | 205 | 1.0 | 4.0 | 0.00 | 1.63 | 0.00 | 100 | 1009.1 |
| 20260505224557 | 52 | 309 | 0.0 | 5.0 | 0.00 | 1.63 | 0.00 | 100 | 1009.1 |
| 20260505223055 | 52 | 221 | 0.0 | 2.0 | 0.00 | 1.63 | 0.00 | 100 | 1009.3 |
| 20260505221601 | 52 | 188 | 1.0 | 2.0 | 0.00 | 1.63 | 0.00 | 100 | 1009.3 |
| 20260505220053 | 52 | 178 | 1.0 | 2.0 | 0.00 | 1.63 | 0.00 | 100 | 1009.5 |
| 20260505214551 | 52 | 205 | 0.0 | 2.0 | 0.00 | 1.63 | 1.63 | 100 | 1009.4 |
| 20260505213051 | 52 | 247 | 0.0 | 2.0 | 0.00 | 1.63 | 1.63 | 100 | 1009.4 |
| 20260505211549 | 52 | 265 | 1.0 | 2.0 | 0.00 | 1.63 | 1.63 | 100 | 1009.4 |
| 20260505210048 | 52 | 178 | 1.0 | 4.0 | 0.00 | 1.63 | 1.63 | 99 | 1009.5 |
| 20260505204545 | 53 | 165 | 1.0 | 3.0 | 0.00 | 1.63 | 1.63 | 99 | 1009.4 |
| 20260505203049 | 53 | 178 | 0.0 | 5.0 | 0.00 | 1.63 | 1.63 | 99 | 1009.3 |
| 20260505201543 | 54 | 309 | 1.0 | 5.0 | 0.00 | 1.63 | 1.63 | 99 | 1009.2 |
| 20260505200041 | 54 | 316 | 3.0 | 6.0 | 0.00 | 1.63 | 1.63 | 98 | 1009.0 |
| 20260505194547 | 55 | 309 | 3.0 | 6.0 | 0.00 | 1.63 | 1.63 | 99 | 1009.0 |
| 20260505193100 | 55 | 221 | 2.0 | 6.0 | 0.00 | 1.63 | 1.63 | 99 | 1009.1 |
| 20260505191542 | 55 | 294 | 2.0 | 5.0 | 0.00 | 1.63 | 1.63 | 99 | 1008.9 |
| 20260505190041 | 55 | 178 | 1.0 | 4.0 | 0.00 | 1.63 | 1.63 | 99 | 1009.0 |
| 20260505184639 | 55 | 244 | 1.0 | 2.0 | 0.00 | 1.63 | 1.63 | 98 | 1008.9 |
| 20260505183037 | 55 | 178 | 1.0 | 4.0 | 0.00 | 1.63 | 1.63 | 98 | 1008.8 |
| 20260505181537 | 56 | 22 | 2.0 | 5.0 | 0.00 | 1.63 | 1.63 | 97 | 1008.7 |
| 20260505180039 | 56 | 309 | 1.0 | 5.0 | 0.00 | 1.63 | 1.63 | 96 | 1008.5 |
| 20260505174535 | 57 | 265 | 5.0 | 9.0 | 0.00 | 1.63 | 1.63 | 96 | 1008.4 |
| 20260505173035 | 57 | 244 | 4.0 | 7.0 | 0.00 | 1.63 | 1.63 | 96 | 1008.5 |
| 20260505171538 | 58 | 321 | 5.0 | 9.0 | 0.00 | 1.63 | 1.63 | 97 | 1008.2 |
| 20260505170037 | 57 | 275 | 2.0 | 6.0 | 0.00 | 1.63 | 1.63 | 97 | 1008.3 |
| 20260505164539 | 56 | 316 | 3.0 | 7.0 | 0.01 | 1.63 | 1.63 | 98 | 1008.3 |
| 20260505163040 | 57 | 303 | 4.0 | 12.0 | 0.04 | 1.63 | 1.63 | 97 | 1008.4 |
| 20260505161531 | 57 | 265 | 4.0 | 9.0 | 0.06 | 1.63 | 1.63 | 98 | 1008.3 |
| 20260505153037 | 59 | 259 | 5.0 | 12.0 | 0.02 | 1.58 | 1.58 | 94 | 1008.3 |
| 20260505151529 | 59 | 233 | 7.0 | 12.0 | 0.00 | 1.57 | 1.57 | 93 | 1008.2 |
| 20260505124518 | 59 | 277 | 8.0 | 14.0 | 0.00 | 1.57 | 1.57 | 91 | 1008.3 |
| 20260505123017 | 58 | 252 | 5.0 | 15.0 | 0.00 | 1.57 | 1.57 | 94 | 1008.2 |
| 20260505121512 | 58 | 217 | 5.0 | 11.0 | 0.00 | 1.57 | 1.57 | 98 | 1008.1 |
| 20260505120012 | 57 | 286 | 5.0 | 12.0 | 0.02 | 1.57 | 1.57 | 100 | 1008.1 |
| 20260505114504 | 55 | 153 | 3.0 | 12.0 | 0.04 | 1.57 | 1.57 | 100 | 1008.3 |
| 20260505113108 | 54 | 247 | 4.0 | 10.0 | 0.06 | 1.57 | 1.57 | 100 | 1008.4 |
| 20260505111559 | 54 | 209 | 7.0 | 12.0 | 0.06 | 1.57 | 1.57 | 99 | 1008.5 |
| 20260505110108 | 54 | 232 | 6.0 | 15.0 | 0.06 | 1.55 | 1.55 | 99 | 1008.4 |
| 20260505101553 | 55 | 232 | 4.0 | 15.0 | 0.02 | 1.50 | 1.50 | 99 | 1008.2 |
| 20260505100056 | 55 | 9 | 2.0 | 10.0 | 0.05 | 1.50 | 1.50 | 100 | 1008.1 |
| 20260505094553 | 56 | 221 | 4.0 | 9.0 | 0.05 | 1.49 | 1.49 | 100 | 1008.0 |
| 20260505093048 | 55 | 227 | 2.0 | 5.0 | 0.06 | 1.48 | 1.48 | 100 | 1008.0 |
| 20260505091605 | 55 | 9 | 2.0 | 6.0 | 0.06 | 1.47 | 1.47 | 100 | 1008.1 |
| 20260505090055 | 55 | 219 | 4.0 | 8.0 | 0.07 | 1.45 | 1.45 | 100 | 1007.9 |
| 20260505084601 | 55 | 232 | 1.0 | 6.0 | 0.08 | 1.45 | 1.44 | 100 | 1007.8 |